This demonstration page uses our WeatherBlox Daily Observations layout. Learn more.

38.80484, -77.04692

Hourly Observations for April 4, 2019

Temp ( °F °C ) Dew Point ( °F °C ) Humidity (%) Winds ( mph kmh ) Pressure ( in mb ) Visibility ( mi km ) Precip ( " mm )
12:52 am 00:52 Partly Cloudy 55 12.8 31 -0.6 40 40 NNW 7 11 30.3 1026 10 16.0934 0 0
1:52 am 01:52 Clear 53 11.7 32 0 45 45 NNE 6 9 30.3 1026 10 16.0934 0 0
2:52 am 02:52 Partly Cloudy 52 11.1 32 0 47 47 Calm 30.32 1027 10 16.0934 0 0
3:52 am 03:52 Mostly Cloudy 49 9.4 39 3.9 69 69 SSW 7 11 30.34 1028 10 16.0934 0 0
4:52 am 04:52 Mostly Cloudy 46 7.8 35 1.7 66 66 N 6 9 30.36 1028 10 16.0934 0 0
5:52 am 05:52 Cloudy 47 8.3 35 1.7 63 63 Calm 30.38 1029 10 16.0934 0 0
6:52 am 06:52 Mostly Cloudy 48 8.9 37 2.8 66 66 Calm 30.41 1030 10 16.0934 0 0
7:52 am 07:52 Mostly Cloudy 49 9.4 38 3.3 66 66 Calm 30.43 1031 10 16.0934 0 0
8:52 am 08:52 Mostly Cloudy 52 11.1 40 4.4 64 64 Calm 30.43 1031 10 16.0934 0 0
9:52 am 09:52 Cloudy 59 15 33 0.6 38 38 Calm 30.43 1031 10 16.0934 0 0
10:52 am 10:52 Cloudy 61 16.1 28 -2.2 29 29 ENE 3 6 30.44 1031 10 16.0934 0 0
11:52 am 11:52 Cloudy 61 16.1 24 -4.4 24 24 Calm 30.43 1031 10 16.0934 0 0
12:52 pm 12:52 Mostly Cloudy 61 16.1 28 -2.2 29 29 S 5 7 30.42 1030 10 16.0934 0 0
1:52 pm 13:52 Partly Cloudy 66 18.9 29 -1.7 25 25 S 8 13 30.39 1029 10 16.0934 0 0
2:52 pm 14:52 Mostly Cloudy 67 19.4 26 -3.3 21 21 ESE 3 6 30.37 1028 10 16.0934 0 0
3:52 pm 15:52 Mostly Cloudy 67 19.4 31 -0.6 26 26 S 7 11 30.35 1028 10 16.0934 0 0
4:52 pm 16:52 Mostly Cloudy 67 19.4 30 -1.1 25 25 ESE 3 6 30.34 1027 10 16.0934 0 0
5:52 pm 17:52 Mostly Cloudy 68 20 28 -2.2 22 22 Calm 30.34 1027 10 16.0934 0 0
6:52 pm 18:52 Mostly Cloudy 63 17.2 36 2.2 37 37 NE 13 20 30.35 1028 10 16.0934 0 0
7:52 pm 19:52 Mostly Cloudy 59 15 39 3.9 48 48 ENE 8 13 30.35 1028 10 16.0934 0 0
8:52 pm 20:52 Mostly Cloudy 58 14.4 34 1.1 41 41 VRB 3 6 30.37 1028 10 16.0934 0 0
9:52 pm 21:52 Mostly Cloudy 58 14.4 35 1.7 42 42 Calm 30.37 1028 10 16.0934 0 0
10:52 pm 22:52 Cloudy 57 13.9 33 0.6 41 41 ESE 3 6 30.36 1028 10 16.0934 0 0
11:52 pm 23:52 Cloudy 57 13.9 33 0.6 41 41 SE 5 7 30.36 1028 10 16.0934 0 0

Powered by AerisWeather